Location: Aalen
(48.8330°N, 10.1000°E)
Time: 03:08:42
(UTC+01:00)

Envisat - Pass Details

Date: 09 December 2022
Orbit: 763 x 765 km, 98.2° (Epoch: 28 January)

Event Time Altitude Azimuth Distance (km) Brightness Sun altitude
Rises 06:34:17 0° 360° (N) 3,246 6.0 -13.4°
Reaches altitude 10° 06:37:48 10° 334° (NNW) 2,314 5.1 -12.9°
Enters shadow 06:38:36 12° 325° (NW) 2,187 4.9 -12.8°
